Regional Weather Roundup
Issued by NWS Northern Indiana

Home | Current Version | Previous Version | Text Only | Print | Product List | Glossary On
Versions: 1 2 3 4 5 6 7 8 9 10 11 12 13 14 15 16 17 18 19 20 21 22 23 24 25 26 27 28 29 30 31 32 33 34 35 36 37 38 39 40 41 42 43 44 45 46 47 48 49 50
000
ASUS43 KIWX 211310
RWRIWX

KIWX WEATHER ROUNDUP
NATIONAL WEATHER SERVICE NORTHERN INDIANA
900 AM EDT SAT OCT 21 2017

NOTE: "FAIR" INDICATES FEW OR NO CLOUDS BELOW 12,000 FEET WITH NO
SIGNIFICANT WEATHER AND/OR OBSTRUCTIONS TO VISIBILITY.

* THESE STATIONS ARE NOT UNDER NWS QUALITY CONTROL. THEY ALSO MAY NOT
  REPORT WEATHER SUCH AS PRECIPITATION OR FOG.

INZ001>027-211400-
NORTHERN INDIANA

CITY           SKY/WX    TMP DP  RH WIND       PRES   REMARKS
GARY*          PTCLDY    59  48  67 S8        30.11R
VALPARAISO     MOCLDY    56  49  77 S6        30.13R
MICHIGAN CITY* PTCLDY    57  46  67 S8        30.13R
LAPORTE*       CLOUDY    55  49  81 S6        30.14R
KNOX*          CLOUDY    55  48  76 S8        30.15R
SOUTH BEND     CLOUDY    57  50  77 S10       30.15S
ELKHART*       CLEAR     57  48  72 SE7       30.16R
GOSHEN         PTCLDY    56  48  74 SE6       30.17R
MONTICELLO*    MOCLDY    55  51  87 SE3       30.16R
LOGANSPORT*    PTCLDY    52  50  93 S6        30.18R
WARSAW*        CLOUDY    55  50  82 SE3       30.17S
AUBURN*        CLOUDY    50  48  93 CALM      30.21R FOG
FORT WAYNE     MOCLDY    51  48  89 SE3       30.20R
HUNTINGTON*    PTCLDY    54  51  90 SE3       30.20R
PERU/GRISSOM   CLOUDY    56  52  88 S7        30.17R
MARION*        PTCLDY    52  48  87 CALM      30.21R

$$
INZ028>050-211400-
CENTRAL INDIANA

CITY           SKY/WX    TMP DP  RH WIND       PRES   REMARKS
LAFAYETTE      PTCLDY    55  50  83 SE3       30.16R
KOKOMO*        PTCLDY    55  51  86 S5        30.20R
MUNCIE*        CLOUDY    59  50  72 S5        30.21R
INDIANAPOLIS   CLOUDY    56  51  84 SE5       30.20R

$$
MIZ043>046-050>051-056>058-064>065-071>073-077>080-211400-
SOUTHWEST LOWER MICHIGAN

CITY           SKY/WX    TMP DP  RH WIND       PRES   REMARKS
BATTLE CREEK   MOCLDY    56  50  80 S8        30.18R
BENTON HARBOR  CLOUDY    59  49  69 S8        30.12R
COLDWATER*     PTCLDY    57  51  79 SE3       30.18R
HILLSDALE*     MOSUNNY   54  48  82 S8        30.19S
HOLLAND        CLOUDY    56  49  77 S8        30.12S
GRAND RAPIDS   CLOUDY    54  51  90 S8        30.14R
KALAMAZOO      CLOUDY    57  47  69 S7        30.17R
STURGIS*       PTCLDY    55  49  82 CALM      30.18R
THREE RIVERS*  FAIR      55  49  82 S5        30.18R

$$
OHZ001>008-015>018-024>025-211400-
NORTHWEST OHIO

CITY           SKY/WX    TMP DP  RH WIND       PRES   REMARKS
WAUSEON*       FAIR      50  50 100 CALM      30.22R FOG
DEFIANCE       CLOUDY    54  50  86 S3        30.22R
FINDLAY        PTSUNNY   54  47  77 SE6       30.23R
TOLEDO EXPRESS CLOUDY    53  51  93 CALM      30.22R
TOLEDO METCALF MOSUNNY   54  48  80 SE5       30.24R
LIMA           MOSUNNY   56  52  86 S7        30.23R

$$
AND FOR LAKE MICHIGAN COASTAL AND OPEN LAKE BUOY OBSERVATIONS

STATION/POSITION TEMP    WIND        PRES    VSBY  WAVE
                 AIR SEA DIR/SP/G                  HT/PER
                 (F)     (DEG/KT/KT) (MB)    (MI)  (FT/S)
CALUMET HARBOR    61     170/  9/ 13 1018.0R
MICHIGAN CITY     61     160/ 13/ 16   N/A
BURNS HARBOR      60     180/ 13/ 18 1019.6R
SAINT JOSEPH      60     170/  2/  8 1020.7
SOUTH LAKE BUOY   62 61  170/ 16/ 21 1017.7          3/ 5
4 MI NW BRIDGMAN  61 59  180/ 12/ 21 1020.1          2/ 3
MICHIGAN CITY     59 58  180/ 12/ 16   N/A           1/ 2

$$
&&




USA.gov is the U.S. government's official web portal to all federal, state and local government web resources and services.